Total_Precipitation_Accumulation
0.00 0.00 0.00 0.00 0.00 0.00 0.00 0.00 0.00 0.00 0.00 0.00 0.00 0.00 0.01 0.01 0.02 0.04 0.05 0.06 0.12 0.22 0.35 0.54 0.71 1.00 1.37 1.74 2.28 2.91 3.37 3.42 3.17 2.81 2.43 2.17 1.83 1.57 1.29 1.03 0.88 0.78 0.72 0.73
0.00 0.00 0.00 0.00 0.00 0.00 0.00 0.00 0.00 0.00 0.00 0.00 0.00 0.01 0.01 0.02 0.03 0.04 0.06 0.09 0.18 0.33 0.49 0.68 0.95 1.20 1.41 1.78 2.18 2.45 2.34 2.06 1.93 1.88 1.80 1.54 1.48 1.46 1.35 1.22 1.00 0.82 0.80 0.77
0.00 0.00 0.00 0.00 0.00 0.00 0.00 0.00 0.00 0.00 0.00 0.00 0.00 0.01 0.02 0.03 0.03 0.05 0.07 0.11 0.19 0.34 0.53 0.78 1.06 1.23 1.28 1.48 1.61 1.54 1.28 1.00 0.97 1.00 0.95 1.08 1.26 1.36 1.37 1.38 1.26 1.13 1.05 1.01
0.00 0.00 0.00 0.00 0.00 0.00 0.00 0.00 0.00 0.00 0.00 0.00 0.00 0.01 0.03 0.05 0.05 0.07 0.13 0.19 0.24 0.31 0.42 0.66 0.85 0.89 0.95 1.00 0.87 0.74 0.64 0.54 0.50 0.50 0.53 0.60 0.79 1.06 1.26 1.43 1.48 1.48 1.39 1.24
0.00 0.00 0.00 0.00 0.00 0.00 0.00 0.00 0.00 0.00 0.00 0.00 0.00 0.01 0.04 0.08 0.13 0.18 0.22 0.25 0.28 0.34 0.46 0.51 0.50 0.50 0.53 0.53 0.44 0.38 0.39 0.39 0.39 0.40 0.48 0.49 0.46 0.51 0.55 0.65 0.77 0.94 1.07 1.02
0.01 0.02 0.01 0.00 0.00 0.01 0.00 0.00 0.00 0.00 0.02 0.05 0.07 0.07 0.08 0.16 0.26 0.27 0.28 0.26 0.24 0.27 0.31 0.34 0.33 0.31 0.30 0.28 0.25 0.31 0.36 0.41 0.42 0.44 0.46 0.45 0.43 0.49 0.51 0.53 0.57 0.57 0.62 0.63
0.06 0.05 0.03 0.01 0.01 0.01 0.01 0.00 0.00 0.02 0.10 0.18 0.18 0.13 0.17 0.30 0.40 0.43 0.38 0.31 0.25 0.20 0.17 0.17 0.19 0.21 0.17 0.16 0.14 0.16 0.21 0.27 0.29 0.31 0.35 0.38 0.45 0.49 0.47 0.44 0.41 0.41 0.41 0.44
0.06 0.08 0.04 0.02 0.02 0.02 0.02 0.01 0.01 0.02 0.03 0.05 0.08 0.13 0.24 0.37 0.43 0.38 0.29 0.23 0.19 0.12 0.08 0.08 0.07 0.08 0.09 0.09 0.09 0.09 0.09 0.11 0.16 0.21 0.29 0.43 0.61 0.68 0.66 0.62 0.51 0.47 0.46 0.46
0.01 0.02 0.01 0.02 0.03 0.04 0.04 0.03 0.03 0.04 0.03 0.03 0.08 0.18 0.26 0.33 0.40 0.33 0.22 0.14 0.10 0.08 0.07 0.04 0.03 0.03 0.04 0.04 0.04 0.05 0.05 0.08 0.15 0.22 0.29 0.34 0.40 0.47 0.48 0.49 0.49 0.48 0.54 0.50
0.00 0.00 0.01 0.01 0.02 0.04 0.05 0.04 0.03 0.04 0.05 0.04 0.06 0.21 0.34 0.39 0.44 0.36 0.23 0.13 0.08 0.06 0.04 0.02 0.02 0.02 0.02 0.03 0.05 0.07 0.07 0.13 0.27 0.40 0.45 0.36 0.28 0.26 0.32 0.41 0.47 0.49 0.53 0.54
0.00 0.00 0.00 0.01 0.04 0.06 0.06 0.06 0.05 0.06 0.06 0.08 0.10 0.22 0.26 0.28 0.28 0.25 0.18 0.12 0.10 0.07 0.03 0.01 0.01 0.01 0.02 0.03 0.07 0.18 0.24 0.31 0.43 0.58 0.66 0.55 0.38 0.30 0.31 0.33 0.33 0.34 0.42 0.51
0.00 0.00 0.00 0.02 0.05 0.08 0.07 0.07 0.07 0.07 0.06 0.07 0.09 0.20 0.14 0.13 0.12 0.10 0.07 0.06 0.04 0.02 0.01 0.01 0.01 0.01 0.01 0.03 0.14 0.38 0.63 0.89 0.95 1.02 1.11 0.96 0.58 0.36 0.28 0.23 0.21 0.28 0.38 0.48
0.00 0.00 0.01 0.03 0.06 0.09 0.08 0.06 0.06 0.06 0.05 0.06 0.15 0.23 0.12 0.07 0.06 0.05 0.03 0.02 0.01 0.01 0.01 0.01 0.01 0.01 0.01 0.03 0.09 0.24 0.32 0.56 0.77 0.93 1.04 0.83 0.45 0.25 0.18 0.15 0.20 0.33 0.43 0.47
0.00 0.01 0.01 0.02 0.01 0.03 0.05 0.06 0.06 0.04 0.06 0.09 0.11 0.23 0.15 0.05 0.03 0.02 0.01 0.01 0.01 0.01 0.01 0.01 0.01 0.01 0.02 0.02 0.04 0.14 0.19 0.20 0.29 0.53 0.68 0.54 0.31 0.19 0.14 0.14 0.19 0.24 0.26 0.29
0.00 0.00 0.00 0.00 0.01 0.02 0.03 0.05 0.05 0.04 0.04 0.14 0.10 0.11 0.09 0.04 0.02 0.02 0.01 0.01 0.01 0.01 0.01 0.01 0.01 0.01 0.02 0.02 0.04 0.10 0.15 0.15 0.22 0.42 0.53 0.42 0.26 0.17 0.10 0.07 0.08 0.11 0.18 0.24
0.00 0.00 0.00 0.00 0.01 0.01 0.03 0.07 0.06 0.03 0.01 0.02 0.03 0.05 0.02 0.02 0.02 0.02 0.02 0.02 0.02 0.02 0.02 0.02 0.02 0.01 0.02 0.03 0.03 0.04 0.07 0.12 0.20 0.36 0.47 0.41 0.29 0.17 0.09 0.05 0.05 0.09 0.14 0.18
0.01 0.00 0.00 0.01 0.02 0.02 0.08 0.07 0.04 0.02 0.02 0.03 0.04 0.05 0.03 0.04 0.04 0.04 0.05 0.04 0.03 0.02 0.02 0.01 0.01 0.01 0.01 0.03 0.04 0.05 0.06 0.09 0.20 0.35 0.43 0.43 0.37 0.25 0.17 0.09 0.08 0.10 0.12 0.15
0.01 0.01 0.01 0.01 0.01 0.07 0.08 0.02 0.01 0.02 0.03 0.03 0.04 0.05 0.05 0.06 0.05 0.05 0.06 0.04 0.02 0.01 0.01 0.01 0.01 0.01 0.01 0.01 0.03 0.04 0.06 0.09 0.17 0.28 0.40 0.45 0.42 0.37 0.33 0.21 0.16 0.14 0.15 0.19
0.01 0.01 0.02 0.01 0.01 0.05 0.03 0.02 0.03 0.03 0.04 0.05 0.06 0.06 0.06 0.05 0.04 0.04 0.03 0.02 0.01 0.01 0.01 0.01 0.01 0.02 0.02 0.02 0.02 0.03 0.04 0.08 0.13 0.22 0.36 0.44 0.43 0.41 0.38 0.33 0.28 0.26 0.29 0.27
0.00 0.01 0.01 0.01 0.02 0.06 0.05 0.04 0.07 0.07 0.12 0.09 0.06 0.04 0.03 0.03 0.05 0.02 0.01 0.01 0.01 0.01 0.01 0.01 0.01 0.01 0.02 0.02 0.04 0.05 0.06 0.11 0.19 0.23 0.34 0.47 0.53 0.55 0.53 0.47 0.39 0.36 0.42 0.37
0.00 0.01 0.01 0.03 0.06 0.06 0.03 0.04 0.05 0.10 0.14 0.04 0.02 0.02 0.03 0.06 0.09 0.05 0.02 0.01 0.01 0.01 0.01 0.02 0.02 0.02 0.03 0.04 0.07 0.11 0.15 0.20 0.23 0.26 0.32 0.43 0.58 0.64 0.63 0.62 0.55 0.50 0.50 0.50
0.01 0.01 0.02 0.04 0.08 0.11 0.02 0.02 0.04 0.06 0.04 0.04 0.05 0.05 0.06 0.05 0.03 0.02 0.01 0.01 0.01 0.01 0.01 0.02 0.03 0.04 0.05 0.08 0.15 0.24 0.29 0.30 0.31 0.35 0.40 0.49 0.57 0.50 0.51 0.68 0.71 0.69 0.70 0.69
0.00 0.02 0.05 0.06 0.07 0.03 0.01 0.02 0.03 0.04 0.07 0.07 0.07 0.05 0.03 0.03 0.02 0.02 0.02 0.02 0.02 0.02 0.03 0.04 0.05 0.08 0.11 0.18 0.31 0.42 0.42 0.41 0.41 0.43 0.47 0.52 0.57 0.63 0.71 0.77 0.79 0.79 0.79 0.79
0.00 0.01 0.03 0.07 0.04 0.02 0.02 0.03 0.03 0.03 0.04 0.03 0.02 0.02 0.02 0.03 0.04 0.04 0.04 0.03 0.03 0.02 0.03 0.05 0.10 0.17 0.25 0.35 0.47 0.54 0.53 0.51 0.50 0.50 0.50 0.53 0.60 0.66 0.72 0.84 0.89 0.89 0.84 0.84
0.01 0.02 0.03 0.07 0.05 0.03 0.04 0.04 0.02 0.01 0.01 0.01 0.01 0.01 0.02 0.04 0.06 0.06 0.06 0.05 0.04 0.04 0.05 0.09 0.16 0.24 0.32 0.45 0.56 0.56 0.56 0.61 0.63 0.59 0.57 0.56 0.61 0.69 0.75 0.83 0.91 0.98 1.01 0.90
0.01 0.03 0.05 0.07 0.06 0.07 0.07 0.03 0.02 0.02 0.02 0.03 0.03 0.03 0.03 0.05 0.06 0.06 0.06 0.05 0.05 0.05 0.08 0.14 0.23 0.28 0.32 0.43 0.58 0.62 0.67 0.74 0.77 0.73 0.64 0.60 0.62 0.70 0.77 0.84 0.84 0.76 0.79 0.66